sat.trackr.live / text

‹ back to catalog

STARLINK-32453

NORAD 61671 · 2024-193L

PAYLOAD ACTIVE UNKNOWN

§ Identity

Operator
Country
US
Launch date
2024-10-26
Launch site
AFETR
Launch vehicle
Mass (kg)
RCS (m²)

Purposes: comms

External: N2YO · Heavens-Above · Gunter

§ Orbital elements

Epoch: 2026-05-25T03:28:39.982944Z

Period
94.11 min
Inclination
53.1599°
Eccentricity
0.0001279
Mean motion
15.30193733 rev/d
Perigee alt
474.4 km
Apogee alt
476.1 km
Semi-major
6,853.4 km
B*
-6.7358e-6
RAAN
95.7806°
Arg perigee
82.4932°
Mean anomaly
277.6214°
Rev number
8,823

§ Raw data

STARLINK-324531 61671U 24193L   26145.14490721 -.00000559  00000+0 -67358-5 0  99902 61671  53.1599  95.7806 0001279  82.4932 277.6214 15.30193733 88232

JSON: /api/v1/satellites/61671 · /tle

For live sub-satellite position, see the globe view (requires WebGL).

§ Visibility from observer

Set your observer location to see the next 7 days of passes ≥ 10°. The values pass through the URL so the page stays shareable.

No JS? Fill the form by hand. The geolocation button needs JavaScript.